Time,TemperatureF,DewpointF,PressureIn,WindDirection,WindDirectionDegrees,WindSpeedMPH,WindSpeedGustMPH,Humidity,HourlyPrecipIn,Conditions,Clouds,dailyrainin,SoftwareType,DateUTC
2013-10-19 00:01:00,44.6,43.0,29.77,NNE,32,5.0,6.0,94,0.11,,---,0.00,VWS V14.01,2013-10-19 04:01:00,
2013-10-19 00:02:00,44.5,42.9,29.78,NNE,32,7.0,7.0,94,0.12,,---,0.01,VWS V14.01,2013-10-19 04:02:00,
2013-10-19 00:07:00,44.4,42.8,29.77,NNE,28,3.0,10.0,94,0.12,,---,0.02,VWS V14.01,2013-10-19 04:07:00,
2013-10-19 00:12:00,44.3,42.7,29.78,NNE,17,8.0,10.0,94,0.11,,---,0.02,VWS V14.01,2013-10-19 04:12:00,
2013-10-19 00:17:00,44.4,42.8,29.78,NNE,29,8.0,9.0,94,0.12,,---,0.03,VWS V14.01,2013-10-19 04:17:00,
2013-10-19 00:22:00,44.4,42.5,29.77,NE,48,3.0,6.0,93,0.12,,---,0.04,VWS V14.01,2013-10-19 04:22:00,
2013-10-19 00:27:00,44.5,42.9,29.77,NE,45,5.0,7.0,94,0.13,,---,0.05,VWS V14.01,2013-10-19 04:27:00,
2013-10-19 00:32:00,44.6,43.0,29.77,NNE,24,5.0,5.0,94,0.12,,---,0.05,VWS V14.01,2013-10-19 04:32:00,
2013-10-19 00:37:00,44.6,43.0,29.77,NE,43,2.0,3.0,94,0.12,,---,0.05,VWS V14.01,2013-10-19 04:37:00,
2013-10-19 00:42:00,44.6,43.0,29.77,NE,44,2.0,3.0,94,0.11,,---,0.05,VWS V14.01,2013-10-19 04:42:00,
2013-10-19 00:47:00,44.6,42.7,29.77,ESE,105,3.0,4.0,93,0.10,,---,0.05,VWS V14.01,2013-10-19 04:47:00,
2013-10-19 00:52:00,44.6,42.7,29.77,ESE,103,2.0,3.0,93,0.08,,---,0.05,VWS V14.01,2013-10-19 04:52:00,
2013-10-19 00:57:00,44.7,42.8,29.77,ESE,103,1.0,3.0,93,0.06,,---,0.05,VWS V14.01,2013-10-19 04:57:00,
2013-10-19 01:02:00,44.7,42.8,29.76,ESE,104,0.0,0.0,93,0.05,,---,0.05,VWS V14.01,2013-10-19 05:02:00,
2013-10-19 01:07:00,44.7,42.8,29.76,ESE,104,0.0,0.0,93,0.05,,---,0.06,VWS V14.01,2013-10-19 05:07:00,
2013-10-19 01:12:00,44.7,42.8,29.76,East,88,3.0,3.0,93,0.04,,---,0.06,VWS V14.01,2013-10-19 05:12:00,
2013-10-19 01:17:00,44.8,42.9,29.76,East,87,0.0,0.0,93,0.03,,---,0.06,VWS V14.01,2013-10-19 05:17:00,
2013-10-19 01:22:00,44.8,42.9,29.76,ENE,76,0.0,0.0,93,0.02,,---,0.06,VWS V14.01,2013-10-19 05:22:00,
2013-10-19 01:27:00,44.8,42.9,29.76,ENE,76,0.0,0.0,93,0.01,,---,0.06,VWS V14.01,2013-10-19 05:27:00,
2013-10-19 01:32:00,44.8,42.9,29.76,ENE,76,0.0,0.0,93,0.01,,---,0.06,VWS V14.01,2013-10-19 05:32:00,
2013-10-19 01:37:00,44.8,42.9,29.76,ENE,76,0.0,0.0,93,0.01,,---,0.06,VWS V14.01,2013-10-19 05:37:00,
2013-10-19 01:42:00,44.8,42.9,29.75,ENE,70,3.0,4.0,93,0.01,,---,0.06,VWS V14.01,2013-10-19 05:42:00,
2013-10-19 01:47:00,44.7,42.8,29.75,ENE,70,0.0,0.0,93,0.01,,---,0.06,VWS V14.01,2013-10-19 05:47:00,
2013-10-19 01:52:00,44.7,42.8,29.75,ENE,69,0.0,0.0,93,0.01,,---,0.06,VWS V14.01,2013-10-19 05:52:00,
2013-10-19 01:57:00,44.7,42.8,29.75,ENE,70,0.0,0.0,93,0.01,,---,0.06,VWS V14.01,2013-10-19 05:57:00,
2013-10-19 02:02:00,44.7,42.8,29.75,ENE,69,0.0,0.0,93,0.01,,---,0.06,VWS V14.01,2013-10-19 06:02:00,
2013-10-19 02:07:00,44.7,42.8,29.75,ENE,70,0.0,0.0,93,0.01,,---,0.07,VWS V14.01,2013-10-19 06:07:00,
2013-10-19 02:12:00,44.7,42.8,29.75,ENE,70,0.0,0.0,93,0.01,,---,0.07,VWS V14.01,2013-10-19 06:12:00,
2013-10-19 02:17:00,44.6,42.7,29.75,ENE,69,1.0,2.0,93,0.01,,---,0.07,VWS V14.01,2013-10-19 06:17:00,
2013-10-19 02:22:00,44.6,42.7,29.75,ENE,69,1.0,1.0,93,0.02,,---,0.08,VWS V14.01,2013-10-19 06:22:00,
2013-10-19 02:27:00,44.5,42.6,29.76,ENE,70,2.0,3.0,93,0.03,,---,0.09,VWS V14.01,2013-10-19 06:27:00,
2013-10-19 02:32:00,44.4,42.5,29.75,ENE,70,0.0,3.0,93,0.04,,---,0.10,VWS V14.01,2013-10-19 06:32:00,
2013-10-19 02:38:00,44.2,42.3,29.75,ENE,69,0.0,0.0,93,0.05,,---,0.11,VWS V14.01,2013-10-19 06:38:00,
2013-10-19 02:43:00,44.1,42.2,29.75,ENE,70,0.0,0.0,93,0.06,,---,0.12,VWS V14.01,2013-10-19 06:43:00,
2013-10-19 02:48:00,44.0,42.4,29.75,ENE,70,0.0,0.0,94,0.07,,---,0.13,VWS V14.01,2013-10-19 06:48:00,
2013-10-19 02:53:00,44.0,42.4,29.75,ENE,70,1.0,3.0,94,0.07,,---,0.13,VWS V14.01,2013-10-19 06:53:00,
2013-10-19 02:58:00,44.0,42.4,29.75,ENE,69,0.0,0.0,94,0.09,,---,0.15,VWS V14.01,2013-10-19 06:58:00,
2013-10-19 03:03:00,43.9,42.3,29.75,ENE,69,0.0,0.0,94,0.11,,---,0.17,VWS V14.01,2013-10-19 07:03:00,
2013-10-19 03:08:00,43.8,42.2,29.75,ENE,69,0.0,0.0,94,0.12,,---,0.18,VWS V14.01,2013-10-19 07:08:00,
2013-10-19 03:13:00,43.8,42.2,29.75,ENE,70,0.0,0.0,94,0.11,,---,0.18,VWS V14.01,2013-10-19 07:13:00,
2013-10-19 03:18:00,43.8,42.2,29.75,ENE,70,0.0,0.0,94,0.11,,---,0.18,VWS V14.01,2013-10-19 07:18:00,
2013-10-19 03:23:00,43.8,42.2,29.75,ENE,70,0.0,0.0,94,0.12,,---,0.19,VWS V14.01,2013-10-19 07:23:00,
2013-10-19 03:28:00,43.8,42.2,29.74,ENE,70,2.0,2.0,94,0.11,,---,0.19,VWS V14.01,2013-10-19 07:28:00,
2013-10-19 03:33:00,43.7,42.1,29.74,ENE,70,2.0,3.0,94,0.10,,---,0.19,VWS V14.01,2013-10-19 07:33:00,
2013-10-19 03:38:00,43.7,42.1,29.74,ENE,69,0.0,2.0,94,0.08,,---,0.19,VWS V14.01,2013-10-19 07:38:00,
2013-10-19 03:43:00,43.7,42.1,29.74,ENE,69,0.0,0.0,94,0.07,,---,0.19,VWS V14.01,2013-10-19 07:43:00,
2013-10-19 03:48:00,43.6,42.0,29.74,ENE,69,0.0,0.0,94,0.07,,---,0.19,VWS V14.01,2013-10-19 07:48:00,
2013-10-19 03:53:00,43.6,42.0,29.74,ENE,70,0.0,0.0,94,0.06,,---,0.19,VWS V14.01,2013-10-19 07:53:00,
2013-10-19 03:58:00,43.6,42.0,29.74,ENE,70,0.0,0.0,94,0.05,,---,0.19,VWS V14.01,2013-10-19 07:58:00,
2013-10-19 04:03:00,43.6,42.0,29.74,ENE,70,0.0,0.0,94,0.03,,---,0.19,VWS V14.01,2013-10-19 08:03:00,
2013-10-19 04:08:00,43.6,42.0,29.74,ENE,69,0.0,0.0,94,0.02,,---,0.19,VWS V14.01,2013-10-19 08:08:00,
2013-10-19 04:13:00,43.6,42.0,29.74,ENE,70,0.0,0.0,94,0.01,,---,0.19,VWS V14.01,2013-10-19 08:13:00,
2013-10-19 04:18:00,43.6,42.0,29.74,ENE,69,0.0,0.0,94,0.01,,---,0.19,VWS V14.01,2013-10-19 08:18:00,
2013-10-19 04:23:00,43.6,42.0,29.74,ENE,70,0.0,0.0,94,0.00,,---,0.19,VWS V14.01,2013-10-19 08:23:00,
2013-10-19 04:28:00,43.6,42.0,29.74,ENE,70,0.0,0.0,94,0.00,,---,0.19,VWS V14.01,2013-10-19 08:28:00,
2013-10-19 04:33:00,43.6,42.0,29.73,ENE,69,0.0,0.0,94,0.00,,---,0.19,VWS V14.01,2013-10-19 08:33:00,
2013-10-19 04:38:00,43.6,42.0,29.73,ENE,69,0.0,0.0,94,0.00,,---,0.19,VWS V14.01,2013-10-19 08:38:00,
2013-10-19 04:43:00,43.6,42.0,29.73,ENE,70,0.0,0.0,94,0.00,,---,0.19,VWS V14.01,2013-10-19 08:43:00,
2013-10-19 04:48:00,43.6,42.0,29.73,ENE,70,0.0,0.0,94,0.00,,---,0.19,VWS V14.01,2013-10-19 08:48:00,
2013-10-19 04:53:00,43.6,42.0,29.73,ENE,69,0.0,0.0,94,0.00,,---,0.19,VWS V14.01,2013-10-19 08:53:00,
2013-10-19 04:58:00,43.4,41.8,29.73,ENE,70,0.0,0.0,94,0.00,,---,0.19,VWS V14.01,2013-10-19 08:58:00,
2013-10-19 05:03:00,43.4,41.8,29.73,ENE,70,0.0,0.0,94,0.00,,---,0.19,VWS V14.01,2013-10-19 09:03:00,
2013-10-19 05:08:00,43.3,41.7,29.73,ENE,70,0.0,1.0,94,0.00,,---,0.19,VWS V14.01,2013-10-19 09:08:00,
2013-10-19 05:13:00,43.2,41.6,29.73,ENE,70,0.0,0.0,94,0.00,,---,0.19,VWS V14.01,2013-10-19 09:13:00,
2013-10-19 05:18:00,43.1,41.5,29.73,ENE,70,1.0,1.0,94,0.00,,---,0.19,VWS V14.01,2013-10-19 09:18:00,
2013-10-19 05:23:00,43.0,41.4,29.72,ENE,70,0.0,1.0,94,0.00,,---,0.19,VWS V14.01,2013-10-19 09:23:00,
2013-10-19 05:28:00,42.9,41.3,29.72,ENE,69,0.0,0.0,94,0.00,,---,0.19,VWS V14.01,2013-10-19 09:28:00,
2013-10-19 05:33:00,42.9,41.3,29.72,ENE,70,0.0,0.0,94,0.00,,---,0.19,VWS V14.01,2013-10-19 09:33:00,
2013-10-19 05:38:00,43.0,41.4,29.72,ENE,70,0.0,0.0,94,0.00,,---,0.19,VWS V14.01,2013-10-19 09:38:00,
2013-10-19 05:43:00,43.1,41.5,29.72,ENE,70,0.0,0.0,94,0.01,,---,0.20,VWS V14.01,2013-10-19 09:43:00,
2013-10-19 05:48:00,43.2,41.6,29.72,ENE,70,0.0,0.0,94,0.01,,---,0.20,VWS V14.01,2013-10-19 09:48:00,
2013-10-19 05:53:00,43.3,41.7,29.72,ENE,70,0.0,0.0,94,0.01,,---,0.20,VWS V14.01,2013-10-19 09:53:00,
2013-10-19 05:58:00,43.3,41.7,29.72,ENE,69,0.0,0.0,94,0.01,,---,0.20,VWS V14.01,2013-10-19 09:58:00,
2013-10-19 06:03:00,43.3,41.7,29.72,ENE,69,0.0,0.0,94,0.01,,---,0.20,VWS V14.01,2013-10-19 10:03:00,
2013-10-19 06:08:00,43.4,41.8,29.72,ENE,70,0.0,0.0,94,0.01,,---,0.20,VWS V14.01,2013-10-19 10:08:00,
2013-10-19 06:13:00,43.4,41.8,29.72,ENE,70,2.0,2.0,94,0.01,,---,0.20,VWS V14.01,2013-10-19 10:13:00,
2013-10-19 06:18:00,43.3,41.7,29.72,ENE,70,0.0,0.0,94,0.01,,---,0.20,VWS V14.01,2013-10-19 10:18:00,
2013-10-19 06:23:00,43.3,41.7,29.72,ENE,70,0.0,0.0,94,0.01,,---,0.20,VWS V14.01,2013-10-19 10:23:00,
2013-10-19 06:28:00,43.3,41.7,29.71,ENE,69,0.0,0.0,94,0.01,,---,0.20,VWS V14.01,2013-10-19 10:28:00,
2013-10-19 06:33:00,43.4,41.8,29.71,ENE,69,0.0,1.0,94,0.01,,---,0.20,VWS V14.01,2013-10-19 10:33:00,
2013-10-19 06:38:00,43.4,41.8,29.71,SE,127,0.0,2.0,94,0.01,,---,0.20,VWS V14.01,2013-10-19 10:38:00,
2013-10-19 06:43:00,43.5,41.9,29.70,South,174,2.0,3.0,94,0.01,,---,0.20,VWS V14.01,2013-10-19 10:43:00,
2013-10-19 06:48:00,43.5,41.9,29.70,South,173,3.0,3.0,94,0.00,,---,0.20,VWS V14.01,2013-10-19 10:48:00,
2013-10-19 06:53:00,43.5,41.9,29.70,South,171,2.0,3.0,94,0.01,,---,0.21,VWS V14.01,2013-10-19 10:53:00,
2013-10-19 06:58:00,43.4,41.8,29.70,South,172,0.0,2.0,94,0.01,,---,0.21,VWS V14.01,2013-10-19 10:58:00,
2013-10-19 07:03:00,43.3,41.7,29.70,South,172,0.0,1.0,94,0.01,,---,0.21,VWS V14.01,2013-10-19 11:03:00,
2013-10-19 07:08:00,43.3,41.7,29.71,South,172,0.0,2.0,94,0.01,,---,0.21,VWS V14.01,2013-10-19 11:08:00,
2013-10-19 07:13:00,43.3,41.7,29.71,SSW,205,2.0,4.0,94,0.02,,---,0.22,VWS V14.01,2013-10-19 11:13:00,
2013-10-19 07:18:00,43.3,41.7,29.71,WSW,249,3.0,5.0,94,0.04,,---,0.24,VWS V14.01,2013-10-19 11:18:00,
2013-10-19 07:23:00,43.1,41.5,29.70,WSW,241,3.0,5.0,94,0.07,,---,0.27,VWS V14.01,2013-10-19 11:23:00,
2013-10-19 07:28:00,42.8,41.2,29.71,WSW,253,6.0,7.0,94,0.11,,---,0.31,VWS V14.01,2013-10-19 11:28:00,
2013-10-19 07:33:00,42.4,40.8,29.71,WSW,258,8.0,12.0,94,0.14,,---,0.34,VWS V14.01,2013-10-19 11:33:00,
2013-10-19 07:38:00,42.2,40.6,29.71,WSW,252,2.0,10.0,94,0.16,,---,0.36,VWS V14.01,2013-10-19 11:38:00,
2013-10-19 07:43:00,42.2,40.6,29.71,WSW,245,5.0,6.0,94,0.19,,---,0.39,VWS V14.01,2013-10-19 11:43:00,
2013-10-19 07:48:00,42.1,40.5,29.72,SW,232,10.0,10.0,94,0.21,,---,0.41,VWS V14.01,2013-10-19 11:48:00,
2013-10-19 07:53:00,42.0,40.4,29.72,WSW,238,7.0,10.0,94,0.23,,---,0.43,VWS V14.01,2013-10-19 11:53:00,
2013-10-19 07:58:00,41.9,40.3,29.72,WSW,248,4.0,6.0,94,0.25,,---,0.46,VWS V14.01,2013-10-19 11:58:00,
2013-10-19 08:03:00,41.5,39.9,29.72,WSW,249,4.0,6.0,94,0.27,,---,0.48,VWS V14.01,2013-10-19 12:03:00,
2013-10-19 08:08:00,41.3,39.7,29.72,WSW,248,4.0,5.0,94,0.29,,---,0.50,VWS V14.01,2013-10-19 12:08:00,
2013-10-19 08:13:00,41.2,39.6,29.72,WSW,248,1.0,4.0,94,0.30,,---,0.51,VWS V14.01,2013-10-19 12:13:00,
2013-10-19 08:18:00,41.2,39.6,29.72,WSW,248,0.0,2.0,94,0.29,,---,0.52,VWS V14.01,2013-10-19 12:18:00,
2013-10-19 08:23:00,41.1,39.5,29.72,WSW,248,2.0,3.0,94,0.27,,---,0.52,VWS V14.01,2013-10-19 12:23:00,
2013-10-19 08:28:00,41.1,39.5,29.72,WSW,248,0.0,2.0,94,0.24,,---,0.52,VWS V14.01,2013-10-19 12:28:00,
2013-10-19 08:33:00,41.1,39.5,29.72,WSW,248,0.0,2.0,94,0.20,,---,0.52,VWS V14.01,2013-10-19 12:33:00,
2013-10-19 08:38:00,41.1,39.5,29.73,WSW,248,1.0,2.0,94,0.19,,---,0.53,VWS V14.01,2013-10-19 12:38:00,
2013-10-19 08:43:00,41.2,39.6,29.73,WSW,248,2.0,4.0,94,0.16,,---,0.53,VWS V14.01,2013-10-19 12:43:00,
2013-10-19 08:48:00,41.2,39.6,29.73,WSW,244,5.0,5.0,94,0.13,,---,0.53,VWS V14.01,2013-10-19 12:48:00,
2013-10-19 08:53:00,41.1,39.5,29.73,WSW,246,3.0,11.0,94,0.13,,---,0.55,VWS V14.01,2013-10-19 12:53:00,
2013-10-19 08:58:00,41.1,39.5,29.73,WSW,246,0.0,3.0,94,0.12,,---,0.56,VWS V14.01,2013-10-19 12:58:00,
2013-10-19 09:03:00,41.1,39.5,29.72,ESE,108,0.0,5.0,94,0.10,,---,0.57,VWS V14.01,2013-10-19 13:03:00,
2013-10-19 09:08:00,41.1,39.5,29.73,WSW,257,1.0,4.0,94,0.08,,---,0.57,VWS V14.01,2013-10-19 13:08:00,
2013-10-19 09:13:00,41.1,39.5,29.72,WSW,257,0.0,3.0,94,0.06,,---,0.57,VWS V14.01,2013-10-19 13:13:00,
2013-10-19 09:18:00,41.1,39.5,29.73,WSW,256,0.0,0.0,94,0.06,,---,0.57,VWS V14.01,2013-10-19 13:18:00,
2013-10-19 09:23:00,41.1,39.5,29.73,WSW,256,0.0,0.0,94,0.05,,---,0.57,VWS V14.01,2013-10-19 13:23:00,
2013-10-19 09:28:00,41.2,39.6,29.73,WSW,256,0.0,0.0,94,0.05,,---,0.57,VWS V14.01,2013-10-19 13:28:00,
2013-10-19 09:33:00,41.3,39.7,29.73,WSW,256,0.0,0.0,94,0.05,,---,0.57,VWS V14.01,2013-10-19 13:33:00,
2013-10-19 09:38:00,41.4,39.8,29.72,WSW,252,0.0,2.0,94,0.05,,---,0.57,VWS V14.01,2013-10-19 13:38:00,
2013-10-19 09:43:00,41.6,40.0,29.72,SSW,213,0.0,2.0,94,0.04,,---,0.57,VWS V14.01,2013-10-19 13:43:00,
2013-10-19 09:48:00,41.8,40.2,29.72,SSW,213,0.0,0.0,94,0.04,,---,0.57,VWS V14.01,2013-10-19 13:48:00,
2013-10-19 09:53:00,41.9,40.6,29.72,SSW,213,0.0,0.0,95,0.04,,---,0.57,VWS V14.01,2013-10-19 13:53:00,
2013-10-19 09:58:00,42.0,40.7,29.72,SSW,213,0.0,2.0,95,0.01,,---,0.57,VWS V14.01,2013-10-19 13:58:00,
2013-10-19 10:03:00,42.2,40.6,29.72,SSE,163,0.0,1.0,94,0.00,,---,0.57,VWS V14.01,2013-10-19 14:03:00,
2013-10-19 10:08:00,42.3,40.7,29.72,SSE,163,0.0,1.0,94,0.00,,---,0.57,VWS V14.01,2013-10-19 14:08:00,
2013-10-19 10:13:00,42.4,40.8,29.72,SSE,163,0.0,0.0,94,0.00,,---,0.57,VWS V14.01,2013-10-19 14:13:00,
2013-10-19 10:18:00,42.4,40.8,29.72,SSE,163,0.0,0.0,94,0.00,,---,0.57,VWS V14.01,2013-10-19 14:18:00,
2013-10-19 10:23:00,42.6,41.3,29.72,SSE,163,0.0,0.0,95,0.01,,---,0.58,VWS V14.01,2013-10-19 14:23:00,
2013-10-19 10:28:00,42.8,41.5,29.72,SSE,163,0.0,0.0,95,0.01,,---,0.58,VWS V14.01,2013-10-19 14:28:00,
2013-10-19 10:33:00,42.9,41.3,29.72,SSE,163,0.0,0.0,94,0.01,,---,0.58,VWS V14.01,2013-10-19 14:33:00,
2013-10-19 10:38:00,42.9,41.3,29.72,SSE,162,0.0,0.0,94,0.01,,---,0.58,VWS V14.01,2013-10-19 14:38:00,
2013-10-19 10:43:00,42.8,41.2,29.72,SSE,161,0.0,0.0,94,0.01,,---,0.58,VWS V14.01,2013-10-19 14:43:00,
2013-10-19 10:48:00,42.7,41.4,29.71,SSE,161,0.0,0.0,95,0.01,,---,0.58,VWS V14.01,2013-10-19 14:48:00,
2013-10-19 10:53:00,42.8,41.2,29.71,SSE,162,0.0,0.0,94,0.01,,---,0.58,VWS V14.01,2013-10-19 14:53:00,
2013-10-19 10:58:00,42.7,41.4,29.71,SSE,162,0.0,0.0,95,0.01,,---,0.58,VWS V14.01,2013-10-19 14:58:00,
2013-10-19 11:03:00,42.7,41.4,29.71,ESE,102,0.0,2.0,95,0.01,,---,0.58,VWS V14.01,2013-10-19 15:03:00,
2013-10-19 11:08:00,42.6,41.0,29.71,East,99,0.0,3.0,94,0.01,,---,0.58,VWS V14.01,2013-10-19 15:08:00,
2013-10-19 11:13:00,42.7,41.1,29.71,East,99,0.0,0.0,94,0.01,,---,0.58,VWS V14.01,2013-10-19 15:13:00,
2013-10-19 11:18:00,42.8,41.2,29.71,East,100,1.0,1.0,94,0.01,,---,0.58,VWS V14.01,2013-10-19 15:18:00,
2013-10-19 11:23:00,42.8,41.2,29.71,East,100,0.0,2.0,94,0.01,,---,0.58,VWS V14.01,2013-10-19 15:23:00,
2013-10-19 11:28:00,42.7,41.1,29.71,SSE,165,3.0,4.0,94,0.00,,---,0.58,VWS V14.01,2013-10-19 15:28:00,
2013-10-19 11:33:00,42.4,40.8,29.71,SW,234,0.0,5.0,94,0.00,,---,0.58,VWS V14.01,2013-10-19 15:33:00,
2013-10-19 11:38:00,41.8,40.2,29.71,South,169,1.0,6.0,94,0.01,,---,0.59,VWS V14.01,2013-10-19 15:38:00,
2013-10-19 11:43:00,41.3,39.7,29.70,South,169,2.0,2.0,94,0.01,,---,0.59,VWS V14.01,2013-10-19 15:43:00,
2013-10-19 11:48:00,41.1,39.5,29.70,South,169,0.0,1.0,94,0.02,,---,0.60,VWS V14.01,2013-10-19 15:48:00,
2013-10-19 11:53:00,41.2,39.6,29.70,South,191,1.0,3.0,94,0.02,,---,0.60,VWS V14.01,2013-10-19 15:53:00,
2013-10-19 11:58:00,41.4,39.8,29.70,SSW,200,2.0,3.0,94,0.02,,---,0.60,VWS V14.01,2013-10-19 15:58:00,
2013-10-19 12:03:00,41.6,40.0,29.70,SSW,200,0.0,0.0,94,0.02,,---,0.60,VWS V14.01,2013-10-19 16:03:00,
2013-10-19 12:08:00,41.6,40.0,29.70,SW,218,0.0,3.0,94,0.02,,---,0.60,VWS V14.01,2013-10-19 16:08:00,
2013-10-19 12:13:00,41.8,40.2,29.70,SW,219,0.0,2.0,94,0.02,,---,0.60,VWS V14.01,2013-10-19 16:13:00,
2013-10-19 12:18:00,42.2,40.6,29.70,SW,219,1.0,3.0,94,0.02,,---,0.60,VWS V14.01,2013-10-19 16:18:00,
2013-10-19 12:23:00,42.9,41.3,29.70,SW,219,1.0,3.0,94,0.02,,---,0.60,VWS V14.01,2013-10-19 16:23:00,
2013-10-19 12:28:00,43.6,42.0,29.70,WSW,243,5.0,5.0,94,0.02,,---,0.60,VWS V14.01,2013-10-19 16:28:00,
2013-10-19 12:33:00,44.5,43.2,29.69,West,276,2.0,10.0,95,0.02,,---,0.60,VWS V14.01,2013-10-19 16:33:00,
2013-10-19 12:39:00,45.0,43.4,29.70,NNE,18,3.0,6.0,94,0.01,,---,0.60,VWS V14.01,2013-10-19 16:39:00,
2013-10-19 12:44:00,44.8,43.2,29.69,NNW,333,0.0,5.0,94,0.01,,---,0.60,VWS V14.01,2013-10-19 16:44:00,
2013-10-19 12:49:00,44.7,43.1,29.69,WNW,285,1.0,8.0,94,0.00,,---,0.60,VWS V14.01,2013-10-19 16:49:00,
2013-10-19 12:54:00,44.7,42.8,29.69,West,277,3.0,11.0,93,0.00,,---,0.60,VWS V14.01,2013-10-19 16:54:00,
2013-10-19 12:59:00,45.0,42.5,29.69,West,259,5.0,11.0,91,0.00,,---,0.60,VWS V14.01,2013-10-19 16:59:00,
2013-10-19 13:04:00,45.5,42.5,29.69,WSW,249,8.0,11.0,89,0.00,,---,0.60,VWS V14.01,2013-10-19 17:04:00,
2013-10-19 13:09:00,46.1,42.5,29.69,WSW,253,5.0,11.0,87,0.00,,---,0.60,VWS V14.01,2013-10-19 17:09:00,
2013-10-19 13:14:00,46.5,41.9,29.69,WNW,286,3.0,8.0,84,0.00,,---,0.60,VWS V14.01,2013-10-19 17:14:00,
2013-10-19 13:19:00,46.6,40.8,29.69,WNW,295,2.0,7.0,80,0.00,,---,0.60,VWS V14.01,2013-10-19 17:19:00,
2013-10-19 13:24:00,46.7,39.9,29.69,WNW,300,6.0,16.0,77,0.01,,---,0.61,VWS V14.01,2013-10-19 17:24:00,
2013-10-19 13:29:00,46.8,39.0,29.69,NW,309,4.0,16.0,74,0.01,,---,0.61,VWS V14.01,2013-10-19 17:29:00,
2013-10-19 13:34:00,46.6,37.3,29.69,WNW,290,6.0,11.0,70,0.01,,---,0.61,VWS V14.01,2013-10-19 17:34:00,
2013-10-19 13:39:00,46.8,37.9,29.68,WNW,300,6.0,12.0,71,0.01,,---,0.61,VWS V14.01,2013-10-19 17:39:00,
2013-10-19 13:44:00,47.2,39.0,29.68,West,270,10.0,15.0,73,0.01,,---,0.61,VWS V14.01,2013-10-19 17:44:00,
2013-10-19 13:49:00,47.3,39.1,29.68,WNW,302,6.0,15.0,73,0.01,,---,0.61,VWS V14.01,2013-10-19 17:49:00,
2013-10-19 13:54:00,47.5,38.2,29.68,West,260,4.0,12.0,70,0.01,,---,0.61,VWS V14.01,2013-10-19 17:54:00,
2013-10-19 13:59:00,47.7,38.0,29.68,West,274,7.0,11.0,69,0.01,,---,0.61,VWS V14.01,2013-10-19 17:59:00,
2013-10-19 14:04:00,47.8,38.1,29.68,WNW,288,3.0,15.0,69,0.01,,---,0.61,VWS V14.01,2013-10-19 18:04:00,
2013-10-19 14:09:00,47.6,37.6,29.68,North,351,7.0,9.0,68,0.01,,---,0.61,VWS V14.01,2013-10-19 18:09:00,
2013-10-19 14:14:00,46.7,37.5,29.68,WNW,288,9.0,12.0,70,0.01,,---,0.61,VWS V14.01,2013-10-19 18:14:00,
2013-10-19 14:19:00,47.0,38.5,29.68,West,276,0.0,15.0,72,0.01,,---,0.61,VWS V14.01,2013-10-19 18:19:00,
2013-10-19 14:24:00,47.4,38.5,29.68,WSW,244,2.0,11.0,71,0.01,,---,0.61,VWS V14.01,2013-10-19 18:24:00,
2013-10-19 14:29:00,47.3,38.0,29.67,West,279,5.0,7.0,70,0.00,,---,0.61,VWS V14.01,2013-10-19 18:29:00,
2013-10-19 14:34:00,47.7,38.8,29.67,WSW,252,11.0,12.0,71,0.00,,---,0.61,VWS V14.01,2013-10-19 18:34:00,
2013-10-19 14:39:00,47.8,38.1,29.67,West,267,2.0,13.0,69,0.00,,---,0.61,VWS V14.01,2013-10-19 18:39:00,
2013-10-19 14:44:00,47.3,37.7,29.67,West,268,4.0,6.0,69,0.00,,---,0.61,VWS V14.01,2013-10-19 18:44:00,
2013-10-19 14:49:00,47.1,38.5,29.67,West,267,2.0,6.0,72,0.00,,---,0.61,VWS V14.01,2013-10-19 18:49:00,
2013-10-19 14:54:00,47.2,37.9,29.67,WSW,257,8.0,10.0,70,0.00,,---,0.61,VWS V14.01,2013-10-19 18:54:00,
2013-10-19 14:59:00,47.5,37.8,29.67,WSW,248,9.0,13.0,69,0.00,,---,0.61,VWS V14.01,2013-10-19 18:59:00,
2013-10-19 15:04:00,48.1,38.0,29.67,West,272,8.0,15.0,68,0.00,,---,0.61,VWS V14.01,2013-10-19 19:04:00,
2013-10-19 15:09:00,48.5,37.3,29.66,West,259,6.0,15.0,65,0.00,,---,0.61,VWS V14.01,2013-10-19 19:09:00,
2013-10-19 15:15:00,48.7,37.9,29.66,NW,323,6.0,14.0,66,0.00,,---,0.61,VWS V14.01,2013-10-19 19:15:00,
2013-10-19 15:20:00,48.3,37.1,29.66,WNW,286,10.0,14.0,65,0.00,,---,0.61,VWS V14.01,2013-10-19 19:20:00,
2013-10-19 15:25:00,47.7,37.3,29.67,West,259,9.0,13.0,67,0.00,,---,0.61,VWS V14.01,2013-10-19 19:25:00,
2013-10-19 15:30:00,47.4,38.1,29.67,WSW,249,3.0,9.0,70,0.00,,---,0.61,VWS V14.01,2013-10-19 19:30:00,
2013-10-19 15:35:00,47.1,37.5,29.67,WSW,257,3.0,9.0,69,0.00,,---,0.61,VWS V14.01,2013-10-19 19:35:00,
2013-10-19 15:40:00,46.9,37.6,29.67,West,261,0.0,7.0,70,0.00,,---,0.61,VWS V14.01,2013-10-19 19:40:00,
2013-10-19 15:45:00,47.0,37.7,29.66,West,276,6.0,11.0,70,0.00,,---,0.61,VWS V14.01,2013-10-19 19:45:00,
2013-10-19 15:50:00,47.6,38.0,29.66,West,272,7.0,11.0,69,0.00,,---,0.61,VWS V14.01,2013-10-19 19:50:00,
2013-10-19 15:55:00,48.5,38.4,29.66,West,273,6.0,11.0,68,0.00,,---,0.61,VWS V14.01,2013-10-19 19:55:00,
2013-10-19 16:00:00,48.6,37.8,29.66,WSW,257,11.0,12.0,66,0.00,,---,0.61,VWS V14.01,2013-10-19 20:00:00,
2013-10-19 16:05:00,48.3,35.1,29.66,WSW,254,10.0,15.0,60,0.00,,---,0.61,VWS V14.01,2013-10-19 20:05:00,
2013-10-19 16:10:00,48.6,37.0,29.66,WSW,254,16.0,16.0,64,0.00,,---,0.61,VWS V14.01,2013-10-19 20:10:00,
2013-10-19 16:15:00,48.9,36.9,29.66,WSW,248,12.0,16.0,63,0.00,,---,0.61,VWS V14.01,2013-10-19 20:15:00,
2013-10-19 16:20:00,49.0,37.0,29.66,West,259,10.0,18.0,63,0.00,,---,0.61,VWS V14.01,2013-10-19 20:20:00,
2013-10-19 16:25:00,48.5,36.5,29.66,West,267,9.0,16.0,63,0.00,,---,0.61,VWS V14.01,2013-10-19 20:25:00,
2013-10-19 16:30:00,48.7,36.7,29.66,WSW,250,10.0,19.0,63,0.00,,---,0.61,VWS V14.01,2013-10-19 20:30:00,
2013-10-19 16:35:00,48.6,36.6,29.66,West,269,10.0,15.0,63,0.00,,---,0.61,VWS V14.01,2013-10-19 20:35:00,
2013-10-19 16:40:00,48.1,35.7,29.66,West,259,7.0,15.0,62,0.00,,---,0.61,VWS V14.01,2013-10-19 20:40:00,
2013-10-19 16:45:00,47.9,36.3,29.66,West,259,8.0,14.0,64,0.00,,---,0.61,VWS V14.01,2013-10-19 20:45:00,
2013-10-19 16:50:00,48.4,36.4,29.66,WSW,243,11.0,13.0,63,0.00,,---,0.61,VWS V14.01,2013-10-19 20:50:00,
2013-10-19 16:55:00,48.0,36.8,29.66,West,268,5.0,12.0,65,0.00,,---,0.61,VWS V14.01,2013-10-19 20:55:00,
2013-10-19 17:00:00,47.8,36.2,29.66,West,272,6.0,10.0,64,0.00,,---,0.61,VWS V14.01,2013-10-19 21:00:00,
2013-10-19 17:05:00,47.9,36.7,29.66,WSW,252,5.0,9.0,65,0.00,,---,0.61,VWS V14.01,2013-10-19 21:05:00,
2013-10-19 17:10:00,48.0,36.4,29.66,West,276,6.0,12.0,64,0.00,,---,0.61,VWS V14.01,2013-10-19 21:10:00,
2013-10-19 17:15:00,47.9,36.3,29.66,West,277,7.0,13.0,64,0.00,,---,0.61,VWS V14.01,2013-10-19 21:15:00,
2013-10-19 17:20:00,47.6,36.4,29.67,West,271,6.0,11.0,65,0.00,,---,0.61,VWS V14.01,2013-10-19 21:20:00,
2013-10-19 17:25:00,47.3,36.2,29.67,West,267,6.0,12.0,65,0.00,,---,0.61,VWS V14.01,2013-10-19 21:25:00,
2013-10-19 17:30:00,47.0,36.6,29.67,West,274,6.0,11.0,67,0.00,,---,0.61,VWS V14.01,2013-10-19 21:30:00,
2013-10-19 17:35:00,46.7,36.3,29.67,WSW,254,5.0,9.0,67,0.00,,---,0.61,VWS V14.01,2013-10-19 21:35:00,
2013-10-19 17:40:00,46.5,36.2,29.67,WSW,249,17.0,20.0,67,0.00,,---,0.61,VWS V14.01,2013-10-19 21:40:00,
2013-10-19 17:45:00,46.0,36.0,29.68,WSW,241,16.0,16.0,68,0.00,,---,0.61,VWS V14.01,2013-10-19 21:45:00,
2013-10-19 17:50:00,45.2,36.4,29.68,WSW,238,17.0,18.0,71,0.00,,---,0.61,VWS V14.01,2013-10-19 21:50:00,
2013-10-19 17:55:00,44.3,36.5,29.68,WSW,241,14.0,14.0,74,0.00,,---,0.61,VWS V14.01,2013-10-19 21:55:00,
2013-10-19 18:00:00,43.7,37.0,29.68,WSW,249,14.0,14.0,77,0.00,,---,0.61,VWS V14.01,2013-10-19 22:00:00,
2013-10-19 18:05:00,43.2,36.8,29.68,West,261,7.0,9.0,78,0.00,,---,0.61,VWS V14.01,2013-10-19 22:05:00,
2013-10-19 18:10:00,42.8,37.1,29.68,WSW,242,10.0,10.0,80,0.00,,---,0.61,VWS V14.01,2013-10-19 22:10:00,
2013-10-19 18:15:00,42.9,36.8,29.68,SW,231,4.0,4.0,79,0.00,,---,0.61,VWS V14.01,2013-10-19 22:15:00,
2013-10-19 18:20:00,43.0,36.6,29.67,SW,214,3.0,3.0,78,0.00,,---,0.61,VWS V14.01,2013-10-19 22:20:00,
2013-10-19 18:25:00,43.1,35.7,29.68,SSW,203,2.0,4.0,75,0.00,,---,0.61,VWS V14.01,2013-10-19 22:25:00,
2013-10-19 18:30:00,43.2,35.5,29.68,SW,221,2.0,2.0,74,0.00,,---,0.61,VWS V14.01,2013-10-19 22:30:00,
2013-10-19 18:35:00,43.1,35.7,29.68,South,189,1.0,1.0,75,0.00,,---,0.61,VWS V14.01,2013-10-19 22:35:00,
2013-10-19 18:40:00,43.0,35.6,29.68,South,189,0.0,0.0,75,0.00,,---,0.61,VWS V14.01,2013-10-19 22:40:00,
2013-10-19 18:45:00,42.9,35.5,29.68,South,189,1.0,2.0,75,0.00,,---,0.61,VWS V14.01,2013-10-19 22:45:00,
2013-10-19 18:50:00,42.7,35.0,29.68,South,189,0.0,0.0,74,0.00,,---,0.61,VWS V14.01,2013-10-19 22:50:00,
2013-10-19 18:56:00,42.5,35.2,29.68,South,188,0.0,0.0,75,0.00,,---,0.61,VWS V14.01,2013-10-19 22:56:00,
2013-10-19 19:01:00,42.2,34.9,29.68,South,189,0.0,0.0,75,0.00,,---,0.61,VWS V14.01,2013-10-19 23:01:00,
2013-10-19 19:06:00,42.0,34.7,29.68,South,189,0.0,0.0,75,0.00,,---,0.61,VWS V14.01,2013-10-19 23:06:00,
2013-10-19 19:11:00,41.6,34.3,29.68,South,188,0.0,0.0,75,0.00,,---,0.61,VWS V14.01,2013-10-19 23:11:00,
2013-10-19 19:16:00,41.4,34.4,29.68,South,188,0.0,0.0,76,0.00,,---,0.61,VWS V14.01,2013-10-19 23:16:00,
2013-10-19 19:21:00,41.1,34.1,29.68,South,189,0.0,0.0,76,0.00,,---,0.61,VWS V14.01,2013-10-19 23:21:00,
2013-10-19 19:26:00,40.9,33.9,29.68,South,189,0.0,0.0,76,0.00,,---,0.61,VWS V14.01,2013-10-19 23:26:00,
2013-10-19 19:31:00,40.9,34.6,29.68,South,189,0.0,0.0,78,0.00,,---,0.61,VWS V14.01,2013-10-19 23:31:00,
2013-10-19 19:36:00,40.8,33.8,29.68,South,189,0.0,0.0,76,0.00,,---,0.61,VWS V14.01,2013-10-19 23:36:00,
2013-10-19 19:41:00,40.9,34.3,29.69,South,189,0.0,0.0,77,0.00,,---,0.61,VWS V14.01,2013-10-19 23:41:00,
2013-10-19 19:46:00,40.9,34.3,29.69,South,188,0.0,0.0,77,0.00,,---,0.61,VWS V14.01,2013-10-19 23:46:00,
2013-10-19 19:51:00,40.8,34.5,29.69,South,188,0.0,0.0,78,0.00,,---,0.61,VWS V14.01,2013-10-19 23:51:00,
2013-10-19 19:56:00,40.6,34.6,29.69,South,189,0.0,0.0,79,0.00,,---,0.61,VWS V14.01,2013-10-19 23:56:00,
2013-10-19 20:01:00,40.4,34.4,29.69,South,189,0.0,0.0,79,0.00,,---,0.61,VWS V14.01,2013-10-20 00:01:00,
2013-10-19 20:06:00,40.2,34.2,29.69,South,189,0.0,0.0,79,0.00,,---,0.61,VWS V14.01,2013-10-20 00:06:00,
2013-10-19 20:11:00,40.1,34.1,29.69,South,188,0.0,0.0,79,0.00,,---,0.61,VWS V14.01,2013-10-20 00:11:00,
2013-10-19 20:16:00,40.0,34.0,29.69,SSE,167,3.0,3.0,79,0.00,,---,0.61,VWS V14.01,2013-10-20 00:16:00,
2013-10-19 20:21:00,39.9,34.2,29.69,South,179,2.0,2.0,80,0.00,,---,0.61,VWS V14.01,2013-10-20 00:21:00,
2013-10-19 20:26:00,39.7,34.0,29.69,South,180,1.0,2.0,80,0.00,,---,0.61,VWS V14.01,2013-10-20 00:26:00,
2013-10-19 20:31:00,39.5,33.8,29.69,South,180,2.0,3.0,80,0.00,,---,0.61,VWS V14.01,2013-10-20 00:31:00,
2013-10-19 20:36:00,39.4,34.1,29.69,South,179,2.0,3.0,81,0.00,,---,0.61,VWS V14.01,2013-10-20 00:36:00,
2013-10-19 20:41:00,39.3,34.3,29.69,South,179,3.0,4.0,82,0.00,,---,0.61,VWS V14.01,2013-10-20 00:41:00,
2013-10-19 20:46:00,39.2,34.5,29.70,South,178,1.0,1.0,83,0.00,,---,0.61,VWS V14.01,2013-10-20 00:46:00,
2013-10-19 20:51:00,39.0,34.9,29.71,WSW,248,4.0,9.0,85,0.00,,---,0.61,VWS V14.01,2013-10-20 00:51:00,
2013-10-19 20:56:00,38.7,34.9,29.71,West,265,3.0,5.0,86,0.00,,---,0.61,VWS V14.01,2013-10-20 00:56:00,
2013-10-19 21:01:00,38.8,35.0,29.71,West,264,5.0,5.0,86,0.00,,---,0.61,VWS V14.01,2013-10-20 01:01:00,
2013-10-19 21:06:00,39.4,35.9,29.71,WSW,246,17.0,27.0,87,0.00,,---,0.61,VWS V14.01,2013-10-20 01:06:00,
2013-10-19 21:11:00,39.3,36.0,29.71,WSW,250,22.0,26.0,88,0.04,,---,0.65,VWS V14.01,2013-10-20 01:11:00,
2013-10-19 21:17:00,38.8,35.6,29.72,WSW,242,17.0,23.0,88,0.08,,---,0.69,VWS V14.01,2013-10-20 01:17:00,
2013-10-19 21:22:00,38.8,35.8,29.72,West,259,13.0,23.0,89,0.11,,---,0.72,VWS V14.01,2013-10-20 01:22:00,
2013-10-19 21:27:00,38.9,36.2,29.73,WSW,249,13.0,14.0,90,0.15,,---,0.76,VWS V14.01,2013-10-20 01:27:00,
2013-10-19 21:32:00,39.1,36.4,29.73,WSW,246,10.0,15.0,90,0.18,,---,0.79,VWS V14.01,2013-10-20 01:32:00,
2013-10-19 21:37:00,39.0,36.3,29.73,SW,218,1.0,10.0,90,0.20,,---,0.81,VWS V14.01,2013-10-20 01:37:00,
2013-10-19 21:42:00,38.9,36.5,29.72,SSE,163,5.0,7.0,91,0.23,,---,0.84,VWS V14.01,2013-10-20 01:42:00,
2013-10-19 21:47:00,38.8,36.4,29.72,South,178,1.0,4.0,91,0.23,,---,0.84,VWS V14.01,2013-10-20 01:47:00,
2013-10-19 21:52:00,38.7,36.3,29.72,South,170,2.0,3.0,91,0.23,,---,0.84,VWS V14.01,2013-10-20 01:52:00,
2013-10-19 21:57:00,38.6,36.2,29.71,South,169,1.0,2.0,91,0.23,,---,0.84,VWS V14.01,2013-10-20 01:57:00,
2013-10-19 22:02:00,38.4,36.0,29.71,ESE,106,3.0,4.0,91,0.23,,---,0.84,VWS V14.01,2013-10-20 02:02:00,
2013-10-19 22:07:00,38.3,35.9,29.70,ESE,103,3.0,3.0,91,0.23,,---,0.84,VWS V14.01,2013-10-20 02:07:00,
2013-10-19 22:12:00,38.3,35.9,29.70,ESE,103,1.0,2.0,91,0.21,,---,0.85,VWS V14.01,2013-10-20 02:12:00,
2013-10-19 22:17:00,38.2,35.8,29.70,ESE,103,0.0,0.0,91,0.17,,---,0.85,VWS V14.01,2013-10-20 02:17:00,
2013-10-19 22:22:00,38.1,35.7,29.70,ESE,103,0.0,0.0,91,0.14,,---,0.85,VWS V14.01,2013-10-20 02:22:00,
2013-10-19 22:27:00,38.0,35.6,29.70,ESE,107,1.0,2.0,91,0.10,,---,0.85,VWS V14.01,2013-10-20 02:27:00,
2013-10-19 22:32:00,37.9,35.5,29.70,SW,231,0.0,2.0,91,0.07,,---,0.85,VWS V14.01,2013-10-20 02:32:00,
2013-10-19 22:37:00,37.8,35.4,29.71,SSW,196,1.0,1.0,91,0.05,,---,0.85,VWS V14.01,2013-10-20 02:37:00,
2013-10-19 22:42:00,37.7,35.6,29.71,WSW,250,5.0,6.0,92,0.02,,---,0.85,VWS V14.01,2013-10-20 02:42:00,
2013-10-19 22:47:00,37.7,35.6,29.72,WSW,246,9.0,12.0,92,0.01,,---,0.85,VWS V14.01,2013-10-20 02:47:00,
2013-10-19 22:52:00,38.6,36.5,29.72,WSW,241,18.0,19.0,92,0.02,,---,0.86,VWS V14.01,2013-10-20 02:52:00,
2013-10-19 22:57:00,39.3,37.2,29.71,West,259,18.0,24.0,92,0.03,,---,0.87,VWS V14.01,2013-10-20 02:57:00,
2013-10-19 23:02:00,39.5,37.1,29.72,West,274,11.0,19.0,91,0.05,,---,0.89,VWS V14.01,2013-10-20 03:02:00,
2013-10-19 23:07:00,39.4,37.0,29.72,WSW,252,15.0,20.0,91,0.06,,---,0.90,VWS V14.01,2013-10-20 03:07:00,
2013-10-19 23:12:00,39.4,37.0,29.72,WSW,250,13.0,15.0,91,0.08,,---,0.92,VWS V14.01,2013-10-20 03:12:00,
2013-10-19 23:17:00,39.5,37.1,29.73,WSW,246,14.0,15.0,91,0.09,,---,0.94,VWS V14.01,2013-10-20 03:17:00,
2013-10-19 23:22:00,39.6,37.2,29.73,WSW,257,9.0,13.0,91,0.10,,---,0.95,VWS V14.01,2013-10-20 03:22:00,
2013-10-19 23:27:00,39.4,37.0,29.73,West,266,7.0,12.0,91,0.12,,---,0.97,VWS V14.01,2013-10-20 03:27:00,
2013-10-19 23:32:00,39.2,36.8,29.72,West,261,7.0,13.0,91,0.14,,---,0.99,VWS V14.01,2013-10-20 03:32:00,
2013-10-19 23:37:00,38.9,36.5,29.72,West,276,10.0,12.0,91,0.17,,---,1.02,VWS V14.01,2013-10-20 03:37:00,
2013-10-19 23:42:00,38.7,36.3,29.72,WSW,254,11.0,14.0,91,0.21,,---,1.06,VWS V14.01,2013-10-20 03:42:00,
2013-10-19 23:47:00,38.6,36.2,29.72,WSW,245,0.0,3.0,91,0.24,,---,1.09,VWS V14.01,2013-10-20 03:47:00,
2013-10-19 23:52:00,38.4,36.0,29.70,ESE,108,1.0,3.0,91,0.25,,---,1.11,VWS V14.01,2013-10-20 03:52:00,
2013-10-19 23:57:00,38.2,35.8,29.70,ESE,113,2.0,6.0,91,0.25,,---,1.11,VWS V14.01,2013-10-20 03:57:00,